• In Deutschland
  • Länderverzeichnis
  • Für 7 Tage
  • Wassertemperatur
  • Satellitenkarten
  • Wetterkarte
  • Widgets
  • user-avatar
    Anmelden

    Stündliche Wetter Wilhelmshaven

    Heute, 20 September, Donnerstag

    Zeit Temperatur Niederschläge Wind Luftdruck Luftfeuchtigkeit
    00:00 +17°C° 0 mm 6 m/S 761 mmHg 74%
    01:00 +17°C° 0 mm 6 m/S 761 mmHg 73%
    02:00 +17°C° 0 mm 6 m/S 760 mmHg 75%
    03:00 +17°C° 0 mm 6 m/S 760 mmHg 77%
    04:00 +17°C° 0 mm 6 m/S 760 mmHg 79%
    05:00 +16°C° 0 mm 6 m/S 760 mmHg 80%
    06:00 +16°C° 0 mm 6 m/S 760 mmHg 82%
    07:00 +16°C° 0 mm 6 m/S 761 mmHg 84%
    08:00 +19°C° 0 mm 6 m/S 761 mmHg 78%
    09:00 +20°C° 0 mm 7 m/S 760 mmHg 73%
    10:00 +22°C° 0 mm 8 m/S 760 mmHg 68%
    11:00 +22°C° 0 mm 8 m/S 760 mmHg 66%
    12:00 +23°C° 0 mm 7 m/S 760 mmHg 63%
    13:00 +23°C° 0 mm 7 m/S 760 mmHg 60%
    14:00 +24°C° 0 mm 7 m/S 760 mmHg 60%
    15:00 +24°C° 0 mm 6 m/S 759 mmHg 59%
    16:00 +24°C° 0 mm 6 m/S 759 mmHg 59%
    17:00 +22°C° 0 mm 5 m/S 758 mmHg 63%
    18:00 +21°C° 0 mm 4 m/S 758 mmHg 68%
    19:00 +20°C° 0 mm 3 m/S 757 mmHg 72%
    20:00 +20°C° 0 mm 4 m/S 757 mmHg 71%
    21:00 +20°C° 0 mm 5 m/S 756 mmHg 69%
    22:00 +20°C° 0 mm 6 m/S 756 mmHg 68%
    23:00 +20°C° 0 mm 6 m/S 755 mmHg 67%

    Morgen, 21 September, Freitag

    Zeit Temperatur Niederschläge Wind Luftdruck Luftfeuchtigkeit
    00:00 +20°C° 0 mm 7 m/S 755 mmHg 67%
    01:00 +20°C° 0 mm 7 m/S 754 mmHg 66%
    02:00 +20°C° 0 mm 7 m/S 753 mmHg 63%
    03:00 +20°C° 0 mm 8 m/S 752 mmHg 59%
    04:00 +21°C° 0 mm 8 m/S 752 mmHg 55%
    05:00 +21°C° 0 mm 9 m/S 751 mmHg 55%
    06:00 +21°C° 0 mm 9 m/S 750 mmHg 55%
    07:00 +21°C° 0 mm 9 m/S 749 mmHg 55%
    08:00 +19°C° 0.6 mm 10 m/S 749 mmHg 64%
    09:00 +18°C° 0.6 mm 11 m/S 749 mmHg 72%
    10:00 +17°C° 0.6 mm 12 m/S 749 mmHg 80%
    11:00 +15°C° 0.2 mm 12 m/S 750 mmHg 73%
    12:00 +15°C° 0.2 mm 12 m/S 752 mmHg 66%
    13:00 +14°C° 0.2 mm 12 m/S 753 mmHg 59%
    14:00 +14°C° 0.3 mm 12 m/S 753 mmHg 60%
    15:00 +13°C° 0.3 mm 12 m/S 754 mmHg 61%
    16:00 +13°C° 0.3 mm 11 m/S 754 mmHg 61%
    17:00 +12°C° 0.2 mm 11 m/S 755 mmHg 60%
    18:00 +12°C° 0.2 mm 10 m/S 755 mmHg 59%
    19:00 +11°C° 0.2 mm 9 m/S 755 mmHg 58%
    20:00 +11°C° 0.3 mm 10 m/S 756 mmHg 59%
    21:00 +11°C° 0.3 mm 11 m/S 756 mmHg 61%
    22:00 +11°C° 0.3 mm 11 m/S 756 mmHg 62%
    23:00 +11°C° 0.3 mm 10 m/S 757 mmHg 65%

    übermorgen, 22 September, Samstag

    Zeit Temperatur Niederschläge Wind Luftdruck Luftfeuchtigkeit
    00:00 +11°C° 0.3 mm 9 m/S 757 mmHg 68%
    01:00 +10°C° 0.3 mm 8 m/S 758 mmHg 71%
    02:00 +10°C° 0.2 mm 8 m/S 759 mmHg 74%
    03:00 +10°C° 0.2 mm 7 m/S 759 mmHg 76%
    04:00 +9°C° 0.2 mm 6 m/S 760 mmHg 79%
    05:00 +9°C° 0.2 mm 6 m/S 760 mmHg 80%
    06:00 +9°C° 0.2 mm 7 m/S 760 mmHg 81%
    07:00 +9°C° 0.2 mm 7 m/S 761 mmHg 81%
    08:00 +11°C° 0.2 mm 8 m/S 761 mmHg 76%
    09:00 +12°C° 0.2 mm 9 m/S 761 mmHg 70%
    10:00 +13°C° 0.2 mm 10 m/S 761 mmHg 64%
    11:00 +14°C° 0.2 mm 10 m/S 762 mmHg 62%
    12:00 +14°C° 0.2 mm 10 m/S 762 mmHg 59%
    13:00 +14°C° 0.2 mm 10 m/S 762 mmHg 56%
    14:00 +15°C° 0.1 mm 9 m/S 762 mmHg 57%
    15:00 +15°C° 0.1 mm 9 m/S 763 mmHg 58%
    16:00 +13°C° 0.1 mm 9 m/S 763 mmHg 59%
    17:00 +12°C° 0 mm 8 m/S 763 mmHg 63%
    18:00 +11°C° 0 mm 7 m/S 763 mmHg 68%
    19:00 +10°C° 0 mm 6 m/S 763 mmHg 72%
    20:00 +10°C° 0 mm 5 m/S 763 mmHg 73%
    21:00 +10°C° 0 mm 5 m/S 763 mmHg 74%
    22:00 +10°C° 0 mm 5 m/S 763 mmHg 75%
    23:00 +9°C° 0.1 mm 5 m/S 763 mmHg 77%

    23 September, Sonntag

    Zeit Temperatur Niederschläge Wind Luftdruck Luftfeuchtigkeit
    00:00 +9°C° 0.1 mm 5 m/S 762 mmHg 79%
    01:00 +10°C° 0.1 mm 4 m/S 762 mmHg 80%
    02:00 +10°C° 0.4 mm 4 m/S 762 mmHg 84%
    03:00 +8°C° 0.4 mm 4 m/S 761 mmHg 88%
    04:00 +9°C° 0.4 mm 3 m/S 761 mmHg 92%
    05:00 +9°C° 0.7 mm 3 m/S 760 mmHg 93%
    06:00 +9°C° 0.7 mm 3 m/S 759 mmHg 94%
    07:00 +9°C° 0.7 mm 2 m/S 759 mmHg 96%
    08:00 +9°C° 0.8 mm 3 m/S 758 mmHg 95%
    09:00 +8°C° 0.8 mm 4 m/S 757 mmHg 94%
    10:00 +10°C° 0.8 mm 4 m/S 756 mmHg 92%
    11:00 +8°C° 3.2 mm 5 m/S 755 mmHg 93%
    12:00 +8°C° 3.2 mm 6 m/S 754 mmHg 93%
    13:00 +8°C° 3.2 mm 7 m/S 753 mmHg 93%
    14:00 +7°C° 2.6 mm 8 m/S 752 mmHg 93%
    15:00 +7°C° 2.6 mm 9 m/S 751 mmHg 92%
    16:00 +7°C° 2.6 mm 10 m/S 750 mmHg 92%
    17:00 +7°C° 2.5 mm 10 m/S 751 mmHg 91%
    18:00 +7°C° 2.5 mm 10 m/S 752 mmHg 90%
    19:00 +7°C° 2.5 mm 10 m/S 753 mmHg 89%
    20:00 +7°C° 0.5 mm 9 m/S 754 mmHg 86%
    21:00 +7°C° 0.5 mm 9 m/S 756 mmHg 83%
    22:00 +9°C° 0.5 mm 8 m/S 757 mmHg 81%
    23:00 +8°C° 0.2 mm 9 m/S 758 mmHg 79%

    24 September, Montag

    Zeit Temperatur Niederschläge Wind Luftdruck Luftfeuchtigkeit
    00:00 +8°C° 0.2 mm 9 m/S 759 mmHg 78%
    01:00 +8°C° 0.2 mm 10 m/S 761 mmHg 77%
    02:00 +8°C° 0.1 mm 10 m/S 762 mmHg 75%
    03:00 +8°C° 0.1 mm 10 m/S 763 mmHg 73%
    04:00 +8°C° 0.1 mm 10 m/S 764 mmHg 72%
    05:00 +8°C° 0.1 mm 10 m/S 765 mmHg 71%
    06:00 +8°C° 0.1 mm 9 m/S 766 mmHg 70%
    07:00 +8°C° 0.1 mm 9 m/S 767 mmHg 69%
    08:00 +10°C° 0.1 mm 9 m/S 767 mmHg 67%
    09:00 +11°C° 0.1 mm 9 m/S 768 mmHg 64%
    10:00 +11°C° 0.1 mm 9 m/S 769 mmHg 62%
    11:00 +12°C° 0.2 mm 9 m/S 770 mmHg 61%
    12:00 +12°C° 0.2 mm 9 m/S 770 mmHg 60%
    13:00 +12°C° 0.2 mm 9 m/S 771 mmHg 58%
    14:00 +12°C° 0.3 mm 9 m/S 771 mmHg 62%
    15:00 +11°C° 0.3 mm 8 m/S 771 mmHg 65%
    16:00 +11°C° 0.3 mm 8 m/S 771 mmHg 68%
    17:00 +10°C° 0.3 mm 7 m/S 772 mmHg 72%
    18:00 +9°C° 0.3 mm 7 m/S 772 mmHg 75%
    19:00 +8°C° 0.3 mm 6 m/S 772 mmHg 79%
    20:00 +8°C° 0.1 mm 6 m/S 772 mmHg 80%
    21:00 +8°C° 0.1 mm 6 m/S 772 mmHg 80%
    22:00 +8°C° 0.1 mm 6 m/S 773 mmHg 81%
    23:00 +8°C° 0.1 mm 6 m/S 773 mmHg 82%

    25 September, Dienstag

    Zeit Temperatur Niederschläge Wind Luftdruck Luftfeuchtigkeit
    00:00 +8°C° 0.1 mm 6 m/S 773 mmHg 84%
    01:00 +8°C° 0.1 mm 6 m/S 773 mmHg 85%
    02:00 +8°C° 0.3 mm 7 m/S 772 mmHg 85%
    03:00 +8°C° 0.3 mm 7 m/S 772 mmHg 86%
    04:00 +7°C° 0.3 mm 8 m/S 772 mmHg 86%
    05:00 +9°C° 0.4 mm 8 m/S 772 mmHg 85%
    06:00 +9°C° 0.4 mm 8 m/S 772 mmHg 85%
    07:00 +10°C° 0.4 mm 8 m/S 771 mmHg 85%
    08:00 +11°C° 0.4 mm 9 m/S 772 mmHg 81%
    09:00 +12°C° 0.4 mm 9 m/S 772 mmHg 78%
    10:00 +13°C° 0.4 mm 9 m/S 772 mmHg 75%
    11:00 +15°C° 0.2 mm 9 m/S 772 mmHg 73%
    12:00 +15°C° 0.2 mm 9 m/S 772 mmHg 70%
    13:00 +15°C° 0.2 mm 9 m/S 772 mmHg 68%
    14:00 +15°C° 0.2 mm 8 m/S 772 mmHg 70%
    15:00 +15°C° 0.2 mm 7 m/S 772 mmHg 73%
    16:00 +14°C° 0.2 mm 7 m/S 773 mmHg 75%
    17:00 +14°C° 0.1 mm 6 m/S 773 mmHg 79%
    18:00 +13°C° 0.1 mm 5 m/S 773 mmHg 84%
    19:00 +12°C° 0.1 mm 4 m/S 773 mmHg 88%
    20:00 +11°C° 0.1 mm 4 m/S 773 mmHg 90%
    21:00 +11°C° 0.1 mm 4 m/S 774 mmHg 91%
    22:00 +10°C° 0.1 mm 4 m/S 774 mmHg 92%
    23:00 +10°C° 0 mm 4 m/S 774 mmHg 93%
    Mehr zeigen